H1 CPF 2 NER 2022 6 4 9 155 01 glonass128 H2 1106401 9128 37867 2022 6 4 0 0 0 2022 6 7 23 45 0 900 1 1 0 0 0 1 H9 10 0 59734 0.00000 0 -18126272.468 -16265329.133 -7626146.861 10 0 59734 900.00000 0 -18735252.056 -16735915.755 -4531634.490 10 0 59734 1800.00000 0 -19102227.380 -16889538.551 -1349271.434 10 0 59734 2700.00000 0 -19182418.830 -16758877.591 1859235.824 10 0 59734 3600.00000 0 -18940288.492 -16386167.827 5031766.087 10 0 59734 4500.00000 0 -18351184.676 -15821224.228 8106976.426 10 0 59734 5400.00000 0 -17402544.024 -15119169.968 11025473.830 10 0 59734 6300.00000 0 -16094602.298 -14337963.668 13730944.139 10 0 59734 7200.00000 0 -14440585.338 -13535829.252 16171217.930 10 0 59734 8100.00000 0 -12466372.934 -12768695.240 18299254.802 10 0 59734 9000.00000 0 -10209649.638 -12087749.286 20074029.146 10 0 59734 9900.00000 0 -7718577.237 -11537208.573 21461302.400 10 0 59734 10800.00000 0 -5050042.534 -11152397.513 22434268.906 10 0 59734 11700.00000 0 -2267550.947 -10958211.600 22974064.494 10 0 59734 12600.00000 0 561149.405 -10968030.587 23070129.087 10 0 59734 13500.00000 0 3366617.834 -11183126.071 22720416.789 10 0 59734 14400.00000 0 6080342.959 -11592588.736 21931449.149 10 0 59734 15300.00000 0 8637330.537 -12173779.573 20718209.592 10 0 59734 16200.00000 0 10978552.487 -12893288.173 19103879.407 10 0 59734 17100.00000 0 13053157.203 -13708360.412 17119418.189 10 0 59734 18000.00000 0 14820350.131 -14568738.321 14802994.359 10 0 59734 18900.00000 0 16250866.406 -15418837.412 12199274.101 10 0 59734 19800.00000 0 17327973.377 -16200172.013 9358579.913 10 0 59734 20700.00000 0 18047959.663 -16853927.822 6335932.981 10 0 59734 21600.00000 0 18420088.575 -17323573.673 3189996.269 10 0 59734 22500.00000 0 18466016.022 -17557401.665 -18062.095 10 0 59734 23400.00000 0 18218695.766 -17510886.768 -3225763.144 10 0 59734 24300.00000 0 17720817.053 -17148763.728 -6370545.269 10 0 59734 25200.00000 0 17022840.126 -16446730.390 -9391001.105 10 0 59734 26100.00000 0 16180712.903 -15392702.098 -12228097.074 10 0 59734 27000.00000 0 15253366.483 -13987560.824 -14826349.601 10 0 59734 27900.00000 0 14300097.133 -12245364.382 -17134932.738 10 0 59734 28800.00000 0 13377947.700 -10193004.545 -19108693.200 10 0 59734 29700.00000 0 12539201.571 -7869326.790 -20709051.037 10 0 59734 30600.00000 0 11829097.425 -5323747.864 -21904766.755 10 0 59734 31500.00000 0 11283863.264 -2614429.252 -22672558.769 10 0 59734 32400.00000 0 10929154.096 193916.313 -22997558.697 10 0 59734 33300.00000 0 10778959.819 3032492.387 -22873595.624 10 0 59734 34200.00000 0 10835029.186 5831055.942 -22303304.368 10 0 59734 35100.00000 0 11086833.176 8520612.771 -21298056.668 10 0 59734 36000.00000 0 11512067.681 11036057.870 -19877717.994 10 0 59734 36900.00000 0 12077672.171 13318650.279 -18070236.316 10 0 59734 37800.00000 0 12741318.999 15318219.571 -15911072.641 10 0 59734 38700.00000 0 13453308.081 16995013.168 -13442486.124 10 0 59734 39600.00000 0 14158784.820 18321109.214 -10712689.484 10 0 59734 40500.00000 0 14800185.851 19281338.689 -7774892.732 10 0 59734 41400.00000 0 15319808.184 19873681.334 -4686255.127 10 0 59734 42300.00000 0 15662392.711 20109122.182 -1506766.873 10 0 59734 43200.00000 0 15777613.201 20010978.168 1701917.088 10 0 59734 44100.00000 0 15622366.512 19613726.161 4877668.346 10 0 59734 45000.00000 0 15162768.694 18961384.168 7959078.425 10 0 59734 45900.00000 0 14375774.458 18105515.530 10886631.955 10 0 59734 46800.00000 0 13250353.407 17102940.821 13603838.152 10 0 59734 47700.00000 0 11788175.051 16013253.551 16058300.250 10 0 59734 48600.00000 0 10003774.783 14896243.109 18202704.198 10 0 59734 49500.00000 0 7924194.122 13809331.458 19995709.655 10 0 59734 50400.00000 0 5588109.835 12805129.029 21402728.164 10 0 59734 51300.00000 0 3044486.903 11929209.956 22396575.494 10 0 59734 52200.00000 0 350809.254 11218197.620 22957987.219 10 0 59734 53100.00000 0 -2429040.847 10698238.894 23075988.666 10 0 59734 54000.00000 0 -5227169.995 10383929.741 22748112.623 10 0 59734 54900.00000 0 -7974231.749 10277736.756 21980460.381 10 0 59734 55800.00000 0 -10602052.732 10369939.349 20787603.982 10 0 59734 56700.00000 0 -13046220.672 10639096.245 19192329.960 10 0 59734 57600.00000 0 -15248529.108 11053018.667 17225227.340 10 0 59734 58500.00000 0 -17159178.460 11570211.698 14924125.386 10 0 59734 59400.00000 0 -18738642.281 12141725.641 12333389.290 10 0 59734 60300.00000 0 -19959120.425 12713341.690 9503084.875 10 0 59734 61200.00000 0 -20805517.128 13228001.436 6488026.329 10 0 59734 62100.00000 0 -21275901.329 13628378.568 3346723.759 10 0 59734 63000.00000 0 -21381427.885 13859484.000 140249.997 10 0 59734 63900.00000 0 -21145721.027 13871193.215 -3068951.446 10 0 59734 64800.00000 0 -20603744.400 13620586.820 -6218293.534 10 0 59734 65700.00000 0 -19800204.312 13074002.510 -9246282.819 10 0 59734 66600.00000 0 -18787553.302 12208708.355 -12093740.477 10 0 59734 67500.00000 0 -17623678.888 11014123.205 -14704981.304 10 0 59734 68400.00000 0 -16369376.361 9492529.365 -17028925.302 10 0 59734 69300.00000 0 -15085714.262 7659244.653 -19020117.824 10 0 59734 70200.00000 0 -13831405.985 5542244.421 -20639636.339 10 0 59734 71100.00000 0 -12660300.664 3181248.032 -21855864.544 10 0 59734 72000.00000 0 -11619101.259 626307.684 -22645117.496 10 0 59734 72900.00000 0 -10745407.535 -2064041.056 -22992105.117 10 0 59734 73800.00000 0 -10066167.244 -4824988.798 -22890225.013 10 0 59734 74700.00000 0 -9596600.768 -7587928.296 -22341679.432 10 0 59734 75600.00000 0 -9339643.669 -10283092.170 -21357415.109 10 0 59734 76500.00000 0 -9285929.016 -12842241.174 -19956888.506 10 0 59734 77400.00000 0 -9414308.012 -15201290.027 -18167662.623 10 0 59734 78300.00000 0 -9692884.330 -17302761.169 -16024845.015 10 0 59734 79200.00000 0 -10080515.745 -19097964.634 -13570379.704 10 0 59734 80100.00000 0 -10528717.017 -20548814.306 -10852208.564 10 0 59734 81000.00000 0 -10983881.332 -21629206.786 -7923320.083 10 0 59734 81900.00000 0 -11389724.663 -22325907.869 -4840705.342 10 0 59734 82800.00000 0 -11689848.662 -22638912.574 -1664242.641 10 0 59734 83700.00000 0 -11830313.357 -22581266.879 1544466.889 10 0 59734 84600.00000 0 -11762111.298 -22178361.761 4723289.887 10 0 59734 85500.00000 0 -11443439.591 -21466731.846 7810754.586 10 0 59735 0.00000 0 -10841675.356 -20492411.277 10747225.251 10 0 59735 900.00000 0 -9934972.542 -19308916.521 13476037.236 10 0 59735 1800.00000 0 -8713415.239 -17974942.460 15944568.311 10 0 59735 2700.00000 0 -7179679.144 -16551866.143 18105232.822 10 0 59735 3600.00000 0 -5349174.754 -15101162.693 19916377.558 10 0 59735 4500.00000 0 -3249665.940 -13681839.177 21343065.794 10 0 59735 5400.00000 0 -920378.912 -12347991.531 22357736.093 10 0 59735 6300.00000 0 1589363.112 -11146584.254 22940724.828 10 0 59735 7200.00000 0 4221925.170 -10115543.463 23080643.483 10 0 59735 8100.00000 0 6913494.646 -9282241.196 22774603.979 10 0 59735 9000.00000 0 9596479.015 -8662433.197 22028287.498 10 0 59735 9900.00000 0 12202071.022 -8259694.323 20855854.568 10 0 59735 10800.00000 0 14662877.992 -8065375.692 19279696.550 10 0 59735 11700.00000 0 16915508.600 -8059086.626 17330031.186 10 0 59735 12600.00000 0 18903011.273 -8209683.026 15044347.551 10 0 59735 13500.00000 0 20577063.535 -8476722.741 12466708.466 10 0 59735 14400.00000 0 21899820.911 -8812328.843 9646921.307 10 0 59735 15300.00000 0 22845347.060 -9163384.054 6639591.098 10 0 59735 16200.00000 0 23400563.607 -9473964.878 3503072.541 10 0 59735 17100.00000 0 23565677.728 -9687912.909 298340.280 10 0 59735 18000.00000 0 23354067.227 -9751433.934 -2912200.789 10 0 59735 18900.00000 0 22791625.897 -9615613.244 -6065941.501 10 0 59735 19800.00000 0 21915595.155 -9238738.213 -9101305.657 10 0 59735 20700.00000 0 20772930.306 -8588326.813 -11958972.445 10 0 59735 21600.00000 0 19418270.270 -7642772.794 -14583058.108 10 0 59735 22500.00000 0 17911597.101 -6392534.558 -16922231.445 10 0 59735 23400.00000 0 16315685.476 -4840814.416 -18930739.000 10 0 59735 24300.00000 0 14693451.580 -3003696.950 -20569317.924 10 0 59735 25200.00000 0 13105315.234 -909738.788 -21805977.006 10 0 59735 26100.00000 0 11606688.444 1400973.954 -22616629.491 10 0 59735 27000.00000 0 10245697.759 3878261.281 -22985564.760 10 0 59735 27900.00000 0 9061237.298 6463717.363 -22905749.678 10 0 59735 28800.00000 0 8081434.654 9092931.769 -22378954.235 10 0 59735 29700.00000 0 7322593.567 11697969.803 -21415700.045 10 0 59735 30600.00000 0 6788656.357 14210007.059 -20035034.014 10 0 59735 31500.00000 0 6471206.580 16562007.022 -18264133.202 10 0 59735 32400.00000 0 6350009.010 18691329.386 -16137750.328 10 0 59735 33300.00000 0 6394061.125 20542160.166 -13697512.492 10 0 59735 34200.00000 0 6563108.688 22067662.776 -10991088.536 10 0 59735 35100.00000 0 6809558.546 23231761.630 -8071242.871 10 0 59735 36000.00000 0 7080705.486 24010485.793 -4994795.512 10 0 59735 36900.00000 0 7321177.267 24392819.008 -1821509.703 10 0 59735 37800.00000 0 7475493.479 24381023.463 1387070.578 10 0 59735 38700.00000 0 7490629.823 23990426.671 4568810.438 10 0 59735 39600.00000 0 7318479.943 23248683.141 7662178.231 10 0 59735 40500.00000 0 6918111.912 22194544.050 10607421.661 10 0 59735 41400.00000 0 6257725.564 20876188.068 13347704.265 10 0 59735 42300.00000 0 5316229.780 19349184.013 15830181.766 10 0 59735 43200.00000 0 4084374.714 17674170.489 18006999.474 10 0 59735 44100.00000 0 2565392.327 15914348.587 19836193.579 10 0 59735 45000.00000 0 775118.745 14132890.730 21282481.017 10 0 59735 45900.00000 0 -1258407.227 12390371.660 22317924.710 10 0 59735 46800.00000 0 -3495854.029 10742326.181 22922463.015 10 0 59735 47700.00000 0 -5887979.883 9237033.126 23084294.322 10 0 59735 48600.00000 0 -8377433.267 7913615.666 22800109.970 10 0 59735 49500.00000 0 -10900899.778 6800535.532 22075170.812 10 0 59735 50400.00000 0 -13391509.521 5914543.030 20923225.104 10 0 59735 51300.00000 0 -15781408.364 5260126.502 19366267.730 10 0 59735 52200.00000 0 -18004389.047 4829484.835 17434143.312 10 0 59735 53100.00000 0 -19998474.741 4603025.491 15163998.408 10 0 59735 54000.00000 0 -21708348.766 4550368.828 12599590.716 10 0 59735 54900.00000 0 -23087529.345 4631818.439 9790466.097 10 0 59735 55800.00000 0 -24100197.766 4800237.384 6791017.120 10 0 59735 56700.00000 0 -24722601.912 5003252.522 3659439.664 10 0 59735 57600.00000 0 -24943974.134 5185694.506 456606.747 10 0 59735 58500.00000 0 -24766922.423 5292170.082 -2755118.736 10 0 59735 59400.00000 0 -24207275.998 5269656.674 -5913108.797 10 0 59735 60300.00000 0 -23293389.656 5070007.385 -8955707.643 10 0 59735 61200.00000 0 -22064934.677 4652257.610 -11823455.448 10 0 59735 62100.00000 0 -20571226.478 3984632.385 -14460272.639 10 0 59735 63000.00000 0 -18869159.553 3046166.115 -16814579.245 10 0 59735 63900.00000 0 -17020837.623 1827862.985 -18840325.049 10 0 59735 64800.00000 0 -15091000.269 333346.166 -20497908.451 10 0 59735 65700.00000 0 -13144356.234 -1421033.821 -21754964.406 10 0 59735 66600.00000 0 -11242937.565 -3406637.561 -22587004.860 10 0 59735 67500.00000 0 -9443587.561 -5583504.299 -22977898.618 10 0 59735 68400.00000 0 -7795689.305 -7901807.881 -22920181.248 10 0 59735 69300.00000 0 -6339230.781 -10303739.296 -22415189.455 10 0 59735 70200.00000 0 -5103287.511 -12725735.838 -21473018.284 10 0 59735 71100.00000 0 -4104985.220 -15100962.318 -20112303.295 10 0 59735 72000.00000 0 -3348984.153 -17361939.226 -18359833.531 10 0 59735 72900.00000 0 -2827503.972 -19443206.998 -16250004.604 10 0 59735 73800.00000 0 -2520885.005 -21283914.562 -13824124.285 10 0 59735 74700.00000 0 -2398658.851 -22830223.972 -11129585.921 10 0 59735 75600.00000 0 -2421079.881 -24037431.439 -8218927.391 10 0 59735 76500.00000 0 -2541050.033 -24871717.482 -5148795.245 10 0 59735 77400.00000 0 -2706353.246 -25311454.985 -1978835.361 10 0 59735 78300.00000 0 -2862103.446 -25348022.891 1229467.664 10 0 59735 79200.00000 0 -2953301.763 -24986094.115 4413979.533 10 0 59735 80100.00000 0 -2927394.876 -24243388.242 7513110.772 10 0 59735 81000.00000 0 -2736727.073 -23149901.690 10466994.258 10 0 59735 81900.00000 0 -2340783.707 -21746649.311 13218624.148 10 0 59735 82800.00000 0 -1708132.965 -20083971.164 15714935.662 10 0 59735 83700.00000 0 -817985.715 -18219475.446 17907806.774 10 0 59735 84600.00000 0 338690.924 -16215702.812 19754964.606 10 0 59735 85500.00000 0 1758552.213 -14137608.173 21220781.088 10 0 59736 0.00000 0 3425772.516 -12049963.013 22276944.531 10 0 59736 900.00000 0 5312466.164 -10014782.782 22902996.321 10 0 59736 1800.00000 0 7379614.262 -8088886.670 23086722.252 10 0 59736 2700.00000 0 9578464.191 -6321685.010 22824393.441 10 0 59736 3600.00000 0 11852344.435 -4753287.070 22120850.550 10 0 59736 4500.00000 0 14138823.337 -3413005.403 20989429.478 10 0 59736 5400.00000 0 16372125.231 -2318318.473 19451728.337 10 0 59736 6300.00000 0 18485706.537 -1474334.813 17537218.110 10 0 59736 7200.00000 0 20414886.924 -873781.888 15282702.068 10 0 59736 8100.00000 0 22099427.569 -497521.405 12731631.751 10 0 59736 9000.00000 0 23485949.564 -315571.059 9933290.133 10 0 59736 9900.00000 0 24530090.950 -288591.517 6941855.612 10 0 59736 10800.00000 0 25198310.800 -369777.407 3815363.164 10 0 59736 11700.00000 0 25469262.601 -507073.456 614581.747 10 0 59736 12600.00000 0 25334676.673 -645622.348 -2598170.481 10 0 59736 13500.00000 0 24799711.781 -730340.054 -5760249.670 10 0 59736 14400.00000 0 23882758.548 -708508.046 -8809923.494 10 0 59736 15300.00000 0 22614700.817 -532270.304 -11687596.194 10 0 59736 16200.00000 0 21037664.622 -160926.438 -14336995.372 10 0 59736 17100.00000 0 19203306.834 437079.417 -16706295.106 10 0 59736 18000.00000 0 17170715.779 1282561.307 -18749151.041 10 0 59736 18900.00000 0 15004013.105 2384456.305 -20425625.220 10 0 59736 19800.00000 0 12769759.240 3739201.925 -21702980.909 10 0 59736 20700.00000 0 10534273.270 5330654.107 -22556330.631 10 0 59736 21600.00000 0 8360981.510 7130550.272 -22969124.191 10 0 59736 22500.00000 0 6307907.417 9099498.216 -22933467.104 10 0 59736 23400.00000 0 4425409.020 11188448.797 -22450263.646 10 0 59736 24300.00000 0 2754258.778 13340589.636 -21529182.731 10 0 59736 25200.00000 0 1324145.536 15493579.145 -20188448.547 10 0 59736 26100.00000 0 152659.784 17582025.802 -18454461.637 10 0 59736 27000.00000 0 -755197.737 19540107.598 -16361259.535 10 0 59736 27900.00000 0 -1406966.547 21304221.068 -13949829.250 10 0 59736 28800.00000 0 -1822141.600 22815548.547 -11267286.754 10 0 59736 29700.00000 0 -2031081.343 24022436.387 -8365941.098 10 0 59736 30600.00000 0 -2073458.105 24882485.443 -5302262.699 10 0 59736 31500.00000 0 -1996319.080 25364267.694 -2135777.086 10 0 59736 32400.00000 0 -1851842.102 25448599.131 1072093.717 10 0 59736 33300.00000 0 -1694882.475 25129317.859 4259219.369 10 0 59736 34200.00000 0 -1580415.099 24413537.225 7363955.971 10 0 59736 35100.00000 0 -1560979.769 23321365.629 10326324.945 10 0 59736 36000.00000 0 -1684236.607 21885106.540 13089154.340 10 0 59736 36900.00000 0 -1990733.356 20147973.445 15599161.967 10 0 59736 37800.00000 0 -2511977.017 18162373.834 17807961.345 10 0 59736 38700.00000 0 -3268889.453 15987833.455 19672973.152 10 0 59736 39600.00000 0 -4270710.624 13688646.203 21158226.652 10 0 59736 40500.00000 0 -5514394.871 11331345.551 22235037.715 10 0 59736 41400.00000 0 -6984525.737 8982100.257 22882552.037 10 0 59736 42300.00000 0 -8653753.903 6704139.917 23088144.297 10 0 59736 43200.00000 0 -10483741.835 4555314.548 22847666.196 10 0 59736 44100.00000 0 -12426578.390 2585887.087 22165538.498 10 0 59736 45000.00000 0 -14426607.447 836648.636 21054684.495 10 0 59736 45900.00000 0 -16422597.708 -662566.521 19536304.704 10 0 59736 46800.00000 0 -18350166.452 -1893904.832 17639495.070 10 0 59736 47700.00000 0 -20144358.879 -2852013.324 15400713.630 10 0 59736 48600.00000 0 -21742277.456 -3544032.833 12863103.306 10 0 59736 49500.00000 0 -23085652.535 -3989063.519 10075681.309 10 0 59736 50400.00000 0 -24123246.690 -4217123.488 7092408.638 10 0 59736 51300.00000 0 -24812991.105 -4267642.828 3971155.911 10 0 59736 52200.00000 0 -25123762.525 -4187555.371 772584.418 10 0 59736 53100.00000 0 -25036723.514 -4029068.141 -2441036.092 10 0 59736 54000.00000 0 -24546166.797 -3847203.050 -5607049.549 10 0 59736 54900.00000 0 -23659825.139 -3697215.888 -8663650.693 10 0 59736 55800.00000 0 -22398631.077 -3632003.795 -11551111.280 10 0 59736 56700.00000 0 -20795934.530 -3699613.537 -14212969.338 10 0 59736 57600.00000 0 -18896209.870 -3940959.098 -16597155.957 10 0 59736 58500.00000 0 -16753306.445 -4387848.332 -18657035.216 10 0 59736 59400.00000 0 -14428316.461 -5061405.141 -20352334.887 10 0 59736 60300.00000 0 -11987150.790 -5970956.507 -21649948.039 10 0 59736 61200.00000 0 -9497926.054 -7113433.311 -22524588.627 10 0 59736 62100.00000 0 -7028274.156 -8473311.521 -22959287.650 10 0 59736 63000.00000 0 -4642688.530 -10023096.688 -22945720.111 10 0 59736 63900.00000 0 -2400019.427 -11724331.090 -22484356.811 10 0 59736 64800.00000 0 -351223.486 -13529080.316 -21584438.974 10 0 59736 65700.00000 0 1462538.549 -15381835.574 -20263777.440 10 0 59736 66600.00000 0 3011377.511 -17221750.249 -18548381.939 10 0 59736 67500.00000 0 4277665.212 -18985115.404 -16471929.379 10 0 59736 68400.00000 0 5256498.932 -20607969.073 -14075083.284 10 0 59736 69300.00000 0 5955624.859 -22028729.005 -11404679.442 10 0 59736 70200.00000 0 6394827.362 -23190738.135 -8512795.232 10 0 59736 71100.00000 0 6604813.528 -24044616.342 -5455722.132 10 0 59736 72000.00000 0 6625643.240 -24550320.761 -2292862.589 10 0 59736 72900.00000 0 6504773.881 -24678829.756 914426.575 10 0 59736 73800.00000 0 6294804.251 -24413381.829 4104021.451 10 0 59736 74700.00000 0 6051014.121 -23750219.652 7214226.024 10 0 59736 75600.00000 0 5828803.681 -22698810.127 10184952.385 10 0 59736 76500.00000 0 5681140.445 -21281533.078 12958864.394 10 0 59736 77400.00000 0 5656120.160 -19532852.935 15482464.150 10 0 59736 78300.00000 0 5794742.941 -17498008.626 17707102.177 10 0 59736 79200.00000 0 6128996.538 -15231276.180 19589893.904 10 0 59736 80100.00000 0 6680325.713 -12793875.496 21094526.861 10 0 59736 81000.00000 0 7458550.849 -10251606.615 22191945.047 10 0 59736 81900.00000 0 8461280.672 -7672311.352 22860899.037 10 0 59736 82800.00000 0 9673843.967 -5123263.011 23088352.412 10 0 59736 83700.00000 0 11069744.373 -2668589.583 22869737.359 10 0 59736 84600.00000 0 12611621.304 -366834.523 22209054.460 10 0 59736 85500.00000 0 14252679.489 1731245.919 21118813.959 10 0 59737 0.00000 0 15938530.423 3584559.046 19619818.344 10 0 59737 900.00000 0 17609372.933 5163149.659 17740787.536 10 0 59737 1800.00000 0 19202422.397 6449208.011 15517833.595 10 0 59737 2700.00000 0 20654492.489 7437572.539 12993789.794 10 0 59737 3600.00000 0 21904620.685 8135702.733 10217406.348 10 0 59737 4500.00000 0 22896628.984 8563122.810 7242425.390 10 0 59737 5400.00000 0 23581511.747 8750357.843 4126551.438 10 0 59737 6300.00000 0 23919548.869 8737405.775 930336.112 10 0 59737 7200.00000 0 23882053.059 8571808.788 -2284001.499 10 0 59737 8100.00000 0 23452674.780 8306405.298 -5453795.563 10 0 59737 9000.00000 0 22628206.735 7996858.177 -8517170.459 10 0 59737 9900.00000 0 21418850.941 7699065.167 -11414268.078 10 0 59737 10800.00000 0 19847934.477 7466563.263 -14088439.463 10 0 59737 11700.00000 0 17951083.856 7348039.573 -16487375.220 10 0 59737 12600.00000 0 15774891.599 7385056.966 -18564150.236 10 0 59737 13500.00000 0 13375130.750 7610093.659 -20278160.246 10 0 59737 14400.00000 0 10814592.730 8044982.281 -21595930.216 10 0 59737 15300.00000 0 8160640.385 8699816.473 -22491777.454 10 0 59737 16200.00000 0 5482580.192 9572372.618 -22948315.884 10 0 59737 17100.00000 0 2848965.132 10648071.757 -22956791.476 10 0 59737 18000.00000 0 324942.444 11900483.165 -22517242.725 10 0 59737 18900.00000 0 -2030242.073 13292347.600 -21638483.947 10 0 59737 19800.00000 0 -4165478.775 14777075.873 -20337912.978 10 0 59737 20700.00000 0 -6039675.161 16300658.016 -18641148.598 10 0 59737 21600.00000 0 -7623206.059 17803901.078 -16581506.463 10 0 59737 22500.00000 0 -8898874.772 19224899.864 -14199325.518 10 0 59737 23400.00000 0 -9862347.934 20501635.460 -11541159.828 10 0 59737 24300.00000 0 -10522049.422 21574591.571 -8658853.168 10 0 59737 25200.00000 0 -10898521.508 22389278.504 -5608515.800 10 0 59737 26100.00000 0 -11023283.720 22898559.167 -2449424.523 10 0 59737 27000.00000 0 -10937240.711 23064680.379 757131.830 10 0 59737 27900.00000 0 -10688708.841 22860925.680 3949038.734 10 0 59737 28800.00000 0 -10331146.452 22272822.075 7064551.151 10 0 59737 29700.00000 0 -9920684.473 21298851.989 10043474.979 10 0 59737 30600.00000 0 -9513561.518 19950642.340 12828313.043 10 0 59737 31500.00000 0 -9163570.767 18252624.218 15365354.835 10 0 59737 32400.00000 0 -8919624.804 16241178.156 17605690.888 10 0 59737 33300.00000 0 -8823539.110 13963300.677 19506134.247 10 0 59737 34200.00000 0 -8908125.552 11474846.977 21030033.362 10 0 59737 35100.00000 0 -9195674.301 8838421.273 22147962.782 10 0 59737 36000.00000 0 -9696886.761 6121000.220 22838280.071 10 0 59737 36900.00000 0 -10410303.774 3391385.355 23087539.465 10 0 59737 37800.00000 0 -11322253.500 717587.208 22890754.980 10 0 59737 38700.00000 0 -12407322.468 -1835753.490 22251507.887 10 0 59737 39600.00000 0 -13629332.126 -4209803.206 21181895.728 10 0 59737 40500.00000 0 -14942782.756 -6353732.684 19702322.460 10 0 59737 41400.00000 0 -16294707.320 -8226583.977 17841131.749 10 0 59737 42300.00000 0 -17626860.607 -9798730.360 15634088.108 10 0 59737 43200.00000 0 -18878154.590 -11052868.218 13123713.294 10 0 59737 44100.00000 0 -19987239.892 -11984498.680 10358488.166 10 0 59737 45000.00000 0 -20895126.003 -12601877.452 7391933.222 10 0 59737 45900.00000 0 -21547730.219 -12925433.403 4281583.755 10 0 59737 46800.00000 0 -21898247.027 -12986678.762 1087878.325 10 0 59737 47700.00000 0 -21909236.179 -12826655.586 -2127018.230 10 0 59737 48600.00000 0 -21554338.730 -12493983.352 -5300434.032 10 0 59737 49500.00000 0 -20819545.505 -12042590.201 -8370426.885 10 0 59737 50400.00000 0 -19703961.205 -11529224.632 -11277012.603 10 0 59737 51300.00000 0 -18220028.846 -11010854.521 -13963358.940 10 0 59737 52200.00000 0 -16393202.453 -10542065.815 -16376919.523 10 0 59737 53100.00000 0 -14261079.983 -10172573.593 -18470483.248 10 0 59737 54000.00000 0 -11872031.886 -9944953.572 -20203116.570 10 0 59737 54900.00000 0 -9283382.719 -9892692.564 -21540978.546 10 0 59737 55800.00000 0 -6559222.705 -10038642.471 -22457991.398 10 0 59737 56700.00000 0 -3767941.995 -10393944.600 -22936352.821 10 0 59737 57600.00000 0 -979592.179 -10957470.543 -22966879.903 10 0 59737 58500.00000 0 1736813.201 -11715803.167 -22549178.320 10 0 59737 59400.00000 0 4315945.316 -12643757.782 -21691634.370 10 0 59737 60300.00000 0 6698642.838 -13705420.223 -20411231.275 10 0 59737 61200.00000 0 8834127.262 -14855656.298 -18733194.822 10 0 59737 62100.00000 0 10681859.305 -16042027.111 -16690477.017 10 0 59737 63000.00000 0 12212960.623 -17207027.638 -14323089.536 10 0 59737 63900.00000 0 13411143.941 -18290552.611 -11677301.792 10 0 59737 64800.00000 0 14273115.906 -19232484.594 -8804720.842 10 0 59737 65700.00000 0 14808439.342 -19975294.600 -5761272.487 10 0 59737 66600.00000 0 15038864.346 -20466545.665 -2606104.594 10 0 59737 67500.00000 0 14997159.818 -20661194.558 599565.268 10 0 59737 68400.00000 0 14725497.618 -20523595.906 3793635.133 10 0 59737 69300.00000 0 14273459.617 -20029125.945 6914313.896 10 0 59737 70200.00000 0 13695753.072 -19165359.403 9901303.971 10 0 59737 71100.00000 0 13049731.058 -17932751.794 12696949.515 10 0 59737 72000.00000 0 12392822.007 -16344799.929 15247329.421 10 0 59737 72900.00000 0 11779975.398 -14427674.846 17503275.844 10 0 59737 73800.00000 0 11261229.363 -12219342.677 19421300.657 10 0 59737 74700.00000 0 10879500.401 -9768209.615 20964414.056 10 0 59737 75600.00000 0 10668686.042 -7131346.021 22102821.582 10 0 59737 76500.00000 0 10652158.353 -4372361.348 22814487.896 10 0 59737 77400.00000 0 10841710.307 -1559015.517 23085557.684 10 0 59737 78300.00000 0 11236998.796 1239337.311 22910626.321 10 0 59737 79200.00000 0 11825508.085 3954369.754 22292855.074 10 0 59737 80100.00000 0 12583036.582 6521361.305 21243927.921 10 0 59737 81000.00000 0 13474688.600 8881633.087 19783849.434 10 0 59737 81900.00000 0 14456332.154 10984738.139 17940585.632 10 0 59737 82800.00000 0 15476464.467 12790317.201 15749552.372 10 0 59737 83700.00000 0 16478409.592 14269543.044 13252958.559 10 0 59737 84600.00000 0 17402758.101 15406092.568 10499014.228 10 0 59737 85500.00000 0 18189947.751 16196604.771 7541016.619 99